| time (UTC) | temp C | wind direction | speed KPH | gust KPH | rain 1hr cm | rain 24hr cm | rain mn cm | humidity % | barometer mb |
| 20260506005526 | -17 | 0.0 | 0.0 | 0.00 | 0.00 | 0.00 | 1011.5 | ||
| 20260506004516 | 7 | 8.0 | 11.3 | 0.00 | 0.00 | 0.00 | 87 | 1011.6 | |
| 20260506003647 | 7 | 0 | 4.8 | 6.4 | 0.00 | 0.00 | 0.00 | 86 | 1011.6 |
| 20260505233136 | 7 | 0 | 3.2 | 4.8 | 0.00 | 0.00 | 0.00 | 82 | 1011.6 |
| 20260505232133 | 7 | 0 | 1.6 | 3.2 | 0.00 | 0.00 | 0.00 | 81 | 1011.6 |
| 20260505231129 | 7 | 0 | 1.6 | 3.2 | 0.00 | 0.00 | 0.00 | 81 | 1011.7 |
| 20260505230125 | 7 | 1.6 | 3.2 | 0.00 | 0.00 | 0.00 | 81 | 1011.7 | |
| 20260505225121 | 7 | 0 | 3.2 | 4.8 | 0.00 | 0.00 | 0.00 | 80 | 1011.7 |
| 20260505224116 | 7 | 0.0 | 0.0 | 0.00 | 0.00 | 0.00 | 80 | 1011.7 | |
| 20260505223111 | 7 | 0 | 1.6 | 3.2 | 0.00 | 0.00 | 0.00 | 80 | 1011.8 |
| 20260505222126 | 7 | 340 | 3.2 | 4.8 | 0.00 | 0.00 | 0.00 | 80 | 1011.8 |
| 20260505221103 | 7 | 0.0 | 1.6 | 0.00 | 0.00 | 0.00 | 72 | 1011.8 | |
| 20260505220059 | 7 | 0.0 | 1.6 | 0.00 | 0.00 | 0.00 | 72 | 1012.0 | |
| 20260505215055 | 7 | 290 | 3.2 | 4.8 | 0.00 | 0.00 | 0.00 | 72 | 1011.8 |
| 20260505214151 | 7 | 348 | 4.8 | 6.4 | 0.00 | 0.00 | 0.00 | 71 | 1011.7 |
| 20260505213147 | 7 | 3.2 | 4.8 | 0.00 | 0.00 | 0.00 | 71 | 1011.8 | |
| 20260505212203 | 7 | 90 | 1.6 | 3.2 | 0.00 | 0.00 | 0.00 | 70 | 1011.9 |
| 20260505211138 | 7 | 90 | 1.6 | 4.8 | 0.00 | 0.00 | 0.00 | 70 | 1011.8 |
| 20260505210133 | 8 | 3.2 | 6.4 | 0.00 | 0.00 | 0.00 | 70 | 1011.8 | |
| 20260505205129 | 8 | 90 | 8.0 | 11.3 | 0.00 | 0.00 | 0.00 | 69 | 1011.7 |
| 20260505204125 | 8 | 9.7 | 12.9 | 0.00 | 0.00 | 0.00 | 67 | 1011.6 | |
| 20260505203121 | -17 | 0.0 | 0.0 | 0.00 | 0.00 | 0.00 | 1011.7 | ||
| 20260505202116 | -17 | 0.0 | 0.0 | 0.00 | 0.00 | 0.00 | 1011.6 | ||
| 20260505201111 | 9 | 8.0 | 9.7 | 0.00 | 0.00 | 0.00 | 68 | 1011.5 | |
| 20260505200106 | 9 | 8.0 | 9.7 | 0.00 | 0.00 | 0.00 | 69 | 1011.5 | |
| 20260505195101 | 9 | 4.8 | 6.4 | 0.00 | 0.00 | 0.00 | 68 | 1011.3 | |
| 20260505194116 | 10 | 90 | 3.2 | 4.8 | 0.00 | 0.00 | 0.00 | 65 | 1011.3 |
| 20260505193051 | 10 | 6.4 | 9.7 | 0.00 | 0.00 | 0.00 | 64 | 1011.2 | |
| 20260505192147 | 10 | 0 | 4.8 | 6.4 | 0.00 | 0.00 | 0.00 | 65 | 1011.1 |
| 20260505191223 | 10 | 8.0 | 9.7 | 0.00 | 0.00 | 0.00 | 66 | 1011.0 | |
| 20260505190139 | 10 | 0 | 6.4 | 9.7 | 0.00 | 0.00 | 0.00 | 66 | 1011.1 |
| 20260505185134 | 10 | 0 | 4.8 | 6.4 | 0.00 | 0.00 | 0.00 | 66 | 1011.1 |
| 20260505184129 | 10 | 0 | 8.0 | 11.3 | 0.00 | 0.00 | 0.00 | 65 | 1011.2 |
| 20260505183124 | 10 | 50 | 6.4 | 9.7 | 0.00 | 0.00 | 0.00 | 65 | 1011.2 |
| 20260505182140 | 10 | 0 | 6.4 | 9.7 | 0.00 | 0.00 | 0.00 | 63 | 1011.1 |
| 20260505181116 | 10 | 9.7 | 11.3 | 0.00 | 0.00 | 0.00 | 62 | 1011.2 | |
| 20260505180112 | 11 | 0 | 8.0 | 12.9 | 0.00 | 0.00 | 0.00 | 62 | 1011.0 |
| 20260505175108 | 11 | 0 | 8.0 | 12.9 | 0.00 | 0.00 | 0.00 | 61 | 1011.2 |
| 20260505174104 | 11 | 0 | 11.3 | 14.5 | 0.00 | 0.00 | 0.00 | 61 | 1011.2 |
| 20260505173120 | 11 | 11.3 | 16.1 | 0.00 | 0.00 | 0.00 | 61 | 1011.2 | |
| 20260505172056 | 11 | 0 | 11.3 | 16.1 | 0.00 | 0.00 | 0.00 | 61 | 1011.2 |
| 20260505171051 | 11 | 0 | 8.0 | 12.9 | 0.00 | 0.00 | 0.00 | 61 | 1011.2 |
| 20260505170106 | 11 | 0 | 4.8 | 12.9 | 0.00 | 0.00 | 0.00 | 63 | 1011.2 |
| 20260505165142 | 11 | 79 | 4.8 | 6.4 | 0.00 | 0.00 | 0.00 | 64 | 1011.4 |
| 20260505164138 | 11 | 6.4 | 9.7 | 0.00 | 0.00 | 0.00 | 65 | 1011.3 | |
| 20260505163125 | 11 | 0 | 6.4 | 11.3 | 0.00 | 0.00 | 0.00 | 65 | 1011.4 |
| 20260505162120 | 10 | 11 | 8.0 | 14.5 | 0.00 | 0.00 | 0.00 | 67 | 1011.4 |
| 20260505161136 | 10 | 0 | 9.7 | 12.9 | 0.00 | 0.00 | 0.00 | 66 | 1011.4 |
| 20260505160130 | 11 | 0 | 9.7 | 14.5 | 0.00 | 0.00 | 0.00 | 66 | 1011.5 |
| 20260505153056 | 11 | 90 | 3.2 | 6.4 | 0.00 | 0.00 | 0.00 | 67 | 1011.4 |
| 20260505152051 | 11 | 90 | 4.8 | 12.9 | 0.00 | 0.00 | 0.00 | 68 | 1011.5 |
| 20260505151048 | 11 | 0 | 11.3 | 16.1 | 0.00 | 0.00 | 0.00 | 66 | 1011.5 |
| 20260505140128 | 11 | 269 | 1.6 | 6.4 | 0.00 | 0.00 | 0.00 | 68 | 1011.8 |
| 20260505124103 | 11 | 0 | 9.7 | 12.9 | 0.00 | 0.00 | 0.00 | 62 | 1011.7 |
| 20260505123040 | 12 | 0 | 4.8 | 8.0 | 0.00 | 0.00 | 0.00 | 63 | 1011.6 |
| 20260505122135 | 11 | 0 | 3.2 | 6.4 | 0.00 | 0.00 | 0.00 | 64 | 1011.6 |
| 20260505121150 | 11 | 334 | 4.8 | 8.0 | 0.00 | 0.00 | 0.00 | 68 | 1011.7 |
| 20260505120125 | 10 | 0 | 8.0 | 11.3 | 0.00 | 0.00 | 0.00 | 67 | 1011.8 |
| 20260505115121 | 11 | 0 | 6.4 | 12.9 | 0.00 | 0.00 | 0.00 | 70 | 1011.8 |
| 20260505114115 | 10 | 0 | 6.4 | 11.3 | 0.00 | 0.00 | 0.00 | 71 | 1011.8 |
| 20260505113111 | 10 | 0 | 9.7 | 17.7 | 0.00 | 0.00 | 0.00 | 71 | 1012.0 |
| 20260505112106 | 10 | 9.7 | 12.9 | 0.00 | 0.00 | 0.00 | 71 | 1012.0 | |
| 20260505111102 | 10 | 0 | 12.9 | 17.7 | 0.00 | 0.00 | 0.00 | 71 | 1012.1 |
| 20260505102040 | 8 | 3.2 | 6.4 | 0.00 | 0.00 | 0.00 | 82 | 1012.3 | |
| 20260505101036 | 8 | 8.0 | 11.3 | 0.00 | 0.00 | 0.00 | 80 | 1012.3 | |
| 20260505100132 | 8 | 90 | 3.2 | 4.8 | 0.00 | 0.00 | 0.00 | 76 | 1012.3 |
| 20260505095128 | 9 | 0 | 11.3 | 16.1 | 0.00 | 0.00 | 0.00 | 73 | 1012.3 |
| 20260505094124 | 9 | 0 | 12.9 | 17.7 | 0.00 | 0.00 | 0.00 | 71 | 1012.2 |
| 20260505093120 | 10 | 0 | 12.9 | 14.5 | 0.00 | 0.00 | 0.00 | 70 | 1012.1 |
| 20260505092115 | 10 | 9.7 | 12.9 | 0.00 | 0.00 | 0.00 | 70 | 1012.1 | |
| 20260505091110 | 10 | 0 | 12.9 | 14.5 | 0.00 | 0.00 | 0.00 | 67 | 1012.1 |
| 20260505090106 | 10 | 0 | 12.9 | 16.1 | 0.00 | 0.00 | 0.00 | 64 | 1012.1 |
| 20260505085101 | 11 | 13 | 4.8 | 8.0 | 0.00 | 0.00 | 0.00 | 61 | 1012.2 |
| 20260505084118 | 11 | 0 | 8.0 | 11.3 | 0.00 | 0.00 | 0.00 | 60 | 1012.2 |
| 20260505083054 | 13 | 23 | 4.8 | 8.0 | 0.00 | 0.00 | 0.00 | 55 | 1012.2 |
| 20260505082109 | 12 | 15 | 4.8 | 8.0 | 0.00 | 0.00 | 0.00 | 53 | 1012.2 |
| 20260505081104 | 12 | 22 | 6.4 | 11.3 | 0.00 | 0.00 | 0.00 | 56 | 1012.2 |
| 20260505080039 | 12 | 0 | 9.7 | 12.9 | 0.00 | 0.00 | 0.00 | 58 | 1012.2 |
| 20260505075054 | 11 | 356 | 9.7 | 12.9 | 0.00 | 0.00 | 0.00 | 58 | 1012.2 |
| 20260505074029 | 11 | 0 | 12.9 | 17.7 | 0.00 | 0.00 | 0.00 | 57 | 1012.2 |
| 20260505073124 | 11 | 318 | 4.8 | 11.3 | 0.00 | 0.00 | 0.00 | 60 | 1012.2 |
| 20260505072120 | 11 | 329 | 6.4 | 8.0 | 0.00 | 0.00 | 0.00 | 61 | 1012.2 |
| 20260505071116 | 11 | 355 | 4.8 | 11.3 | 0.00 | 0.00 | 0.00 | 62 | 1012.2 |
| 20260505070113 | 11 | 326 | 4.8 | 6.4 | 0.00 | 0.00 | 0.00 | 63 | 1012.2 |
| 20260505065108 | 11 | 6 | 1.6 | 4.8 | 0.00 | 0.00 | 0.00 | 66 | 1012.3 |
| 20260505064123 | 10 | 315 | 1.6 | 4.8 | 0.00 | 0.00 | 0.00 | 71 | 1012.2 |
| 20260505063058 | 9 | 0.0 | 0.0 | 0.00 | 0.00 | 0.00 | 72 | 1012.2 | |
| 20260505062054 | 8 | 0.0 | 0.0 | 0.00 | 0.00 | 0.00 | 73 | 1012.2 | |
| 20260505061049 | 8 | 0.0 | 0.0 | 0.00 | 0.00 | 0.00 | 75 | 1012.2 | |
| 20260505060046 | 7 | 0.0 | 0.0 | 0.00 | 0.00 | 0.00 | 75 | 1012.2 | |
| 20260505055042 | 7 | 0.0 | 0.0 | 0.00 | 0.00 | 0.00 | 77 | 1012.2 | |
| 20260505054058 | 7 | 293 | 1.6 | 4.8 | 0.00 | 0.00 | 0.00 | 80 | 1012.1 |
| 20260505053034 | 7 | 289 | 1.6 | 4.8 | 0.00 | 0.00 | 0.00 | 85 | 1012.2 |
| 20260505052029 | 7 | 0 | 0.0 | 3.2 | 0.00 | 0.00 | 0.00 | 93 | 1012.2 |
| 20260505051024 | 6 | 338 | 1.6 | 4.8 | 0.00 | 0.00 | 0.00 | 94 | 1012.2 |
| 20260505050119 | 6 | 0.0 | 0.0 | 0.00 | 0.00 | 0.00 | 93 | 1012.2 | |
| 20260505041058 | 6 | 0.0 | 0.0 | 0.00 | 0.00 | 0.00 | 92 | 1011.9 | |
| 20260505040053 | 6 | 0.0 | 0.0 | 0.00 | 0.00 | 0.00 | 92 | 1011.9 | |
| 20260505035048 | 7 | 0.0 | 0.0 | 0.00 | 0.00 | 0.00 | 92 | 1012.0 | |
| 20260505034123 | 7 | 0.0 | 0.0 | 0.00 | 0.00 | 0.00 | 88 | 1012.0 | |
| 20260505033038 | 7 | 0.0 | 0.0 | 0.00 | 0.00 | 0.00 | 89 | 1011.9 | |
| 20260505032034 | 7 | 0.0 | 0.0 | 0.00 | 0.00 | 0.00 | 88 | 1012.0 | |
| 20260505031030 | 7 | 0.0 | 0.0 | 0.00 | 0.00 | 0.00 | 88 | 1012.0 | |
| 20260505030026 | 8 | 0.0 | 0.0 | 0.00 | 0.00 | 0.00 | 89 | 1011.9 | |
| 20260505025021 | 8 | 0.0 | 0.0 | 0.00 | 0.00 | 0.00 | 88 | 1012.0 | |
| 20260505024117 | 8 | 0.0 | 0.0 | 0.00 | 0.00 | 0.00 | 88 | 1012.0 | |
| 20260505023132 | 8 | 0.0 | 0.0 | 0.00 | 0.00 | 0.00 | 88 | 1012.0 | |
| 20260505022107 | 8 | 0.0 | 0.0 | 0.00 | 0.00 | 0.00 | 88 | 1012.1 | |
| 20260505021123 | 8 | 0.0 | 0.0 | 0.00 | 0.00 | 0.00 | 88 | 1012.0 | |
| 20260505020119 | 8 | 0.0 | 0.0 | 0.00 | 0.00 | 0.00 | 88 | 1012.0 | |
| 20260505015055 | 8 | 0.0 | 0.0 | 0.00 | 0.00 | 0.00 | 88 | 1012.2 | |
| 20260505014052 | 8 | 0.0 | 0.0 | 0.00 | 0.00 | 0.00 | 88 | 1012.4 | |
| 20260505013048 | 8 | 0.0 | 0.0 | 0.00 | 0.00 | 0.00 | 88 | 1012.5 | |
| 20260505012043 | 8 | 0.0 | 0.0 | 0.00 | 0.00 | 0.00 | 88 | 1012.6 |